Pagina principale
METAR-TAF:

METAR-TAF

Aeroporti :

Capri, Italia

latitudine: 40-33N, longitudine: 014-12E, altezza: 160 m

Osservazione

Il bollettino è stato emesso 33 minuti fa, alle 19:55 UTC
Vento calmo
Temperature 23°C
Umidità 89%
Pressione 1019 hPa
Visibilità 10 km o più
nessuna nube inferiore a 1500 m e nessun cumulonembo

METAR: LIQC 161955Z 00000KT CAVOK 23/21 Q1019 RMK SKC QUK / QUL / VIS MAR 20 KM VIS MIN 9999

Ora: 22:28 (20:28 UTC)


TAF: mancante

Osservazioni e previsioni meteorologiche di più di 4000 aeroporti (messaggi METAR e TAF).

Le stazioni disponibili sono rappresentate dai dischi gialli e rossi sulla carta.

Puntare il mouse per vedere il nome della stazione.

Clicca sopra per visualizzare le osservazioni e previsioni meteorologiche.

Per cambiare la mappa : fare clic sui pulsanti verdi con una croce nera per ingrandire, il pulsante verde con un trattino per diminuire, o sulla freccia verde per le mappe adiacenti.


METAR-TAF: